HISTORICAL SENSOR DATA

Sensor Data Report

DB LIVE
CURRENT TIME--:--:--
DEVICE NETWORK Gateway Status
13 ESP · realtime ~1s · history 60s
Weather WS-MOD-01
OFFLINE
Actuator ACT-MOD-01
OFFLINE
Mainboard L3 MB-L3-01
OFFLINE
Mainboard L5 MB-L5-01
OFFLINE
Remote AC AC-REMOTE-01
OFFLINE
PZEM L3-01 PWR-L3-01
OFFLINE
PZEM L3-02 PWR-L3-02
OFFLINE
PZEM L3-03 PWR-L3-03
OFFLINE
PZEM L3-04 PWR-L3-04
OFFLINE
PZEM L5-01 PWR-L5-01
OFFLINE
PZEM L5-02 PWR-L5-02
OFFLINE
PZEM L5-03 PWR-L5-03
OFFLINE
PZEM L5-04 PWR-L5-04
OFFLINE
REPORT FILTER

Periode & Sensor

DATABASE HISTORY
RESET
QUICK RANGE Hari ini 7 hari 30 hari
PERIODE04 Aug 2026sampai 02 Sep 2026
TOTAL DATA40,278sensor readings
MINIMUM-0.50sesuai filter
AVERAGE56.78sesuai filter
MAXIMUM998.00sesuai filter
REPORT RESULT

Data Sensor

04/08/2026 — 02/09/2026 EXPORT CSV
NOTANGGALWAKTUDEVICECHANNELSENSORVALUEUNIT
10201 02/09/2026 14:55:42 MB-L5-01Mainboard Lantai 5 L5-SHT-01-T SHT20 1 Temperature 32.40 °C
10202 02/09/2026 14:55:42 MB-L3-01Mainboard Lantai 3 L3-LUX-04 Illuminance / LUX 4 99.70 lux
10203 02/09/2026 14:55:42 MB-L5-01Mainboard Lantai 5 L5-HFT-02 Heat Flow Temperature 2 29.90 °C
10204 02/09/2026 14:55:42 MB-L3-01Mainboard Lantai 3 L3-HFT-02 Heat Flow Temperature 2 29.10 °C
10205 02/09/2026 14:55:40 MB-L3-01Mainboard Lantai 3 L3-RAD-02 Radiation 2 1.00 W/m²
10206 02/09/2026 14:55:40 MB-L3-01Mainboard Lantai 3 L3-SHT-03-T SHT20 3 Temperature 31.70 °C
10207 02/09/2026 14:55:40 MB-L3-01Mainboard Lantai 3 L3-AI-04 Analog Input 4 3.12 V
10208 02/09/2026 14:55:40 MB-L3-01Mainboard Lantai 3 L3-BGT-02 Black Globe Temperature 2 29.70 °C
10209 02/09/2026 14:55:40 MB-L3-01Mainboard Lantai 3 L3-RAD-01 Radiation 1 1.00 W/m²
10210 02/09/2026 14:55:40 MB-L3-01Mainboard Lantai 3 L3-ST-01 Surface Temperature 1 29.80 °C
10211 02/09/2026 14:55:40 MB-L3-01Mainboard Lantai 3 L3-AI-05 Analog Input 5 3.12 V
10212 02/09/2026 14:55:40 MB-L3-01Mainboard Lantai 3 L3-SHT-02-T SHT20 2 Temperature 32.00 °C
10213 02/09/2026 14:55:40 MB-L3-01Mainboard Lantai 3 L3-BGT-03 Black Globe Temperature 3 29.10 °C
10214 02/09/2026 14:55:40 MB-L3-01Mainboard Lantai 3 L3-LUX-05 Illuminance / LUX 5 56.80 lux
10215 02/09/2026 14:55:40 MB-L3-01Mainboard Lantai 3 L3-ST-02 Surface Temperature 2 29.80 °C
10216 02/09/2026 14:55:40 MB-L3-01Mainboard Lantai 3 L3-AI-06 Analog Input 6 3.12 V
10217 02/09/2026 14:55:40 MB-L3-01Mainboard Lantai 3 L3-LUX-06 Illuminance / LUX 6 29.30 lux
10218 02/09/2026 14:55:40 MB-L3-01Mainboard Lantai 3 L3-AI-01 Analog Input 1 3.12 V
10219 02/09/2026 14:55:40 MB-L3-01Mainboard Lantai 3 L3-SHT-01-T SHT20 1 Temperature 32.20 °C
10220 02/09/2026 14:55:40 MB-L3-01Mainboard Lantai 3 L3-HFT-01 Heat Flow Temperature 1 29.40 °C
10221 02/09/2026 14:55:40 MB-L3-01Mainboard Lantai 3 L3-LUX-02 Illuminance / LUX 2 36.80 lux
10222 02/09/2026 14:55:40 MB-L3-01Mainboard Lantai 3 L3-SHT-01-RH SHT20 1 Humidity 48.70 %RH
10223 02/09/2026 14:55:40 MB-L3-01Mainboard Lantai 3 L3-AI-02 Analog Input 2 3.12 V
10224 02/09/2026 14:55:40 MB-L3-01Mainboard Lantai 3 L3-LUX-04 Illuminance / LUX 4 99.50 lux
10225 02/09/2026 14:55:40 MB-L3-01Mainboard Lantai 3 L3-HFT-02 Heat Flow Temperature 2 29.10 °C
10226 02/09/2026 14:55:40 MB-L3-01Mainboard Lantai 3 L3-LUX-03 Illuminance / LUX 3 125.50 lux
10227 02/09/2026 14:55:40 MB-L3-01Mainboard Lantai 3 L3-AI-03 Analog Input 3 3.12 V
10228 02/09/2026 14:55:40 MB-L3-01Mainboard Lantai 3 L3-SHT-03-RH SHT20 3 Humidity 49.20 %RH
10229 02/09/2026 14:55:40 MB-L3-01Mainboard Lantai 3 L3-SHT-02-RH SHT20 2 Humidity 48.40 %RH
10230 02/09/2026 14:55:40 MB-L3-01Mainboard Lantai 3 L3-BGT-01 Black Globe Temperature 1 29.80 °C
10231 02/09/2026 14:55:40 MB-L3-01Mainboard Lantai 3 L3-LUX-01 Illuminance / LUX 1 33.00 lux
10232 02/09/2026 14:55:39 MB-L5-01Mainboard Lantai 5 L5-AI-06 Analog Input 6 3.05 V
10233 02/09/2026 14:55:39 MB-L5-01Mainboard Lantai 5 L5-SHT-02-RH SHT20 2 Humidity 48.60 %RH
10234 02/09/2026 14:55:39 MB-L5-01Mainboard Lantai 5 L5-AI-05 Analog Input 5 3.05 V
10235 02/09/2026 14:55:39 MB-L5-01Mainboard Lantai 5 L5-SHT-03-T SHT20 3 Temperature 32.10 °C
10236 02/09/2026 14:55:39 MB-L5-01Mainboard Lantai 5 L5-SHT-02-T SHT20 2 Temperature 32.20 °C
10237 02/09/2026 14:55:39 MB-L5-01Mainboard Lantai 5 L5-SHT-03-RH SHT20 3 Humidity 49.00 %RH
10238 02/09/2026 14:55:39 MB-L5-01Mainboard Lantai 5 L5-AI-04 Analog Input 4 3.05 V
10239 02/09/2026 14:55:39 MB-L5-01Mainboard Lantai 5 L5-AI-03 Analog Input 3 3.05 V
10240 02/09/2026 14:55:39 MB-L5-01Mainboard Lantai 5 L5-RAD-01 Radiation 1 1.00 W/m²
10241 02/09/2026 14:55:39 MB-L5-01Mainboard Lantai 5 L5-AI-02 Analog Input 2 3.05 V
10242 02/09/2026 14:55:39 MB-L5-01Mainboard Lantai 5 L5-SHT-01-RH SHT20 1 Humidity 48.40 %RH
10243 02/09/2026 14:55:39 MB-L5-01Mainboard Lantai 5 L5-LUX-01 Illuminance / LUX 1 207.20 lux
10244 02/09/2026 14:55:39 MB-L5-01Mainboard Lantai 5 L5-AI-01 Analog Input 1 3.05 V
10245 02/09/2026 14:55:39 MB-L5-01Mainboard Lantai 5 L5-BGT-03 Black Globe Temperature 3 29.80 °C
10246 02/09/2026 14:55:39 MB-L5-01Mainboard Lantai 5 L5-LUX-03 Illuminance / LUX 3 162.70 lux
10247 02/09/2026 14:55:39 MB-L5-01Mainboard Lantai 5 L5-BGT-02 Black Globe Temperature 2 30.00 °C
10248 02/09/2026 14:55:39 MB-L5-01Mainboard Lantai 5 L5-BGT-01 Black Globe Temperature 1 30.00 °C
10249 02/09/2026 14:55:39 MB-L5-01Mainboard Lantai 5 L5-SHT-01-T SHT20 1 Temperature 32.40 °C
10250 02/09/2026 14:55:39 MB-L5-01Mainboard Lantai 5 L5-HFT-02 Heat Flow Temperature 2 29.90 °C
10251 02/09/2026 14:55:39 MB-L5-01Mainboard Lantai 5 L5-HFT-01 Heat Flow Temperature 1 30.00 °C
10252 02/09/2026 14:55:39 MB-L5-01Mainboard Lantai 5 L5-LUX-06 Illuminance / LUX 6 205.30 lux
10253 02/09/2026 14:55:39 MB-L5-01Mainboard Lantai 5 L5-ST-02 Surface Temperature 2 30.40 °C
10254 02/09/2026 14:55:39 MB-L5-01Mainboard Lantai 5 L5-LUX-04 Illuminance / LUX 4 192.70 lux
10255 02/09/2026 14:55:39 MB-L5-01Mainboard Lantai 5 L5-LUX-02 Illuminance / LUX 2 114.00 lux
10256 02/09/2026 14:55:39 MB-L5-01Mainboard Lantai 5 L5-ST-01 Surface Temperature 1 30.30 °C
10257 02/09/2026 14:55:39 MB-L5-01Mainboard Lantai 5 L5-RAD-02 Radiation 2 1.00 W/m²
10258 02/09/2026 14:55:39 MB-L5-01Mainboard Lantai 5 L5-LUX-05 Illuminance / LUX 5 355.50 lux
10259 02/09/2026 14:55:38 MB-L5-01Mainboard Lantai 5 L5-AI-03 Analog Input 3 3.05 V
10260 02/09/2026 14:55:38 MB-L3-01Mainboard Lantai 3 L3-AI-05 Analog Input 5 3.12 V
10261 02/09/2026 14:55:38 MB-L5-01Mainboard Lantai 5 L5-RAD-01 Radiation 1 1.00 W/m²
10262 02/09/2026 14:55:38 MB-L3-01Mainboard Lantai 3 L3-SHT-02-T SHT20 2 Temperature 32.00 °C
10263 02/09/2026 14:55:38 MB-L5-01Mainboard Lantai 5 L5-AI-02 Analog Input 2 3.05 V
10264 02/09/2026 14:55:38 MB-L3-01Mainboard Lantai 3 L3-BGT-03 Black Globe Temperature 3 29.10 °C
10265 02/09/2026 14:55:38 MB-L5-01Mainboard Lantai 5 L5-SHT-01-RH SHT20 1 Humidity 48.50 %RH
10266 02/09/2026 14:55:38 MB-L3-01Mainboard Lantai 3 L3-LUX-05 Illuminance / LUX 5 55.60 lux
10267 02/09/2026 14:55:38 MB-L3-01Mainboard Lantai 3 L3-ST-02 Surface Temperature 2 29.70 °C
10268 02/09/2026 14:55:38 MB-L5-01Mainboard Lantai 5 L5-LUX-01 Illuminance / LUX 1 204.60 lux
10269 02/09/2026 14:55:38 MB-L5-01Mainboard Lantai 5 L5-AI-01 Analog Input 1 3.05 V
10270 02/09/2026 14:55:38 MB-L3-01Mainboard Lantai 3 L3-AI-06 Analog Input 6 3.12 V
10271 02/09/2026 14:55:38 MB-L3-01Mainboard Lantai 3 L3-LUX-06 Illuminance / LUX 6 26.00 lux
10272 02/09/2026 14:55:38 MB-L3-01Mainboard Lantai 3 L3-AI-01 Analog Input 1 3.12 V
10273 02/09/2026 14:55:38 MB-L5-01Mainboard Lantai 5 L5-BGT-03 Black Globe Temperature 3 29.70 °C
10274 02/09/2026 14:55:38 MB-L3-01Mainboard Lantai 3 L3-SHT-01-T SHT20 1 Temperature 32.10 °C
10275 02/09/2026 14:55:38 MB-L3-01Mainboard Lantai 3 L3-HFT-01 Heat Flow Temperature 1 29.40 °C
10276 02/09/2026 14:55:38 MB-L5-01Mainboard Lantai 5 L5-LUX-03 Illuminance / LUX 3 170.20 lux
10277 02/09/2026 14:55:38 MB-L5-01Mainboard Lantai 5 L5-BGT-02 Black Globe Temperature 2 29.90 °C
10278 02/09/2026 14:55:38 MB-L3-01Mainboard Lantai 3 L3-LUX-02 Illuminance / LUX 2 59.20 lux
10279 02/09/2026 14:55:38 MB-L3-01Mainboard Lantai 3 L3-SHT-01-RH SHT20 1 Humidity 48.50 %RH
10280 02/09/2026 14:55:38 MB-L5-01Mainboard Lantai 5 L5-BGT-01 Black Globe Temperature 1 30.00 °C
10281 02/09/2026 14:55:38 MB-L3-01Mainboard Lantai 3 L3-AI-02 Analog Input 2 3.12 V
10282 02/09/2026 14:55:38 MB-L5-01Mainboard Lantai 5 L5-SHT-01-T SHT20 1 Temperature 32.40 °C
10283 02/09/2026 14:55:38 MB-L3-01Mainboard Lantai 3 L3-LUX-04 Illuminance / LUX 4 84.70 lux
10284 02/09/2026 14:55:38 MB-L5-01Mainboard Lantai 5 L5-HFT-02 Heat Flow Temperature 2 29.90 °C
10285 02/09/2026 14:55:38 MB-L3-01Mainboard Lantai 3 L3-HFT-02 Heat Flow Temperature 2 29.00 °C
10286 02/09/2026 14:55:38 MB-L5-01Mainboard Lantai 5 L5-HFT-01 Heat Flow Temperature 1 30.10 °C
10287 02/09/2026 14:55:38 MB-L5-01Mainboard Lantai 5 L5-LUX-06 Illuminance / LUX 6 205.30 lux
10288 02/09/2026 14:55:38 MB-L5-01Mainboard Lantai 5 L5-ST-02 Surface Temperature 2 30.40 °C
10289 02/09/2026 14:55:38 MB-L3-01Mainboard Lantai 3 L3-LUX-03 Illuminance / LUX 3 100.20 lux
10290 02/09/2026 14:55:38 MB-L5-01Mainboard Lantai 5 L5-LUX-04 Illuminance / LUX 4 207.40 lux
10291 02/09/2026 14:55:38 MB-L3-01Mainboard Lantai 3 L3-AI-03 Analog Input 3 3.12 V
10292 02/09/2026 14:55:38 MB-L5-01Mainboard Lantai 5 L5-LUX-02 Illuminance / LUX 2 141.80 lux
10293 02/09/2026 14:55:38 MB-L5-01Mainboard Lantai 5 L5-ST-01 Surface Temperature 1 30.20 °C
10294 02/09/2026 14:55:38 MB-L3-01Mainboard Lantai 3 L3-SHT-03-RH SHT20 3 Humidity 49.20 %RH
10295 02/09/2026 14:55:38 MB-L3-01Mainboard Lantai 3 L3-SHT-02-RH SHT20 2 Humidity 48.40 %RH
10296 02/09/2026 14:55:38 MB-L3-01Mainboard Lantai 3 L3-BGT-01 Black Globe Temperature 1 29.80 °C
10297 02/09/2026 14:55:38 MB-L5-01Mainboard Lantai 5 L5-RAD-02 Radiation 2 1.00 W/m²
10298 02/09/2026 14:55:38 MB-L3-01Mainboard Lantai 3 L3-LUX-01 Illuminance / LUX 1 33.00 lux
10299 02/09/2026 14:55:38 MB-L5-01Mainboard Lantai 5 L5-LUX-05 Illuminance / LUX 5 355.50 lux
10300 02/09/2026 14:55:38 MB-L3-01Mainboard Lantai 3 L3-RAD-02 Radiation 2 1.00 W/m²
Menampilkan maksimal 100 data per halaman